N2PUI Weather Reports


time (UTC)temp
C
wind
direction
speed
KPH
gust
KPH
rain 1hr
cm
rain 24hr
cm
rain mn
cm
humidity
%
barometer
mb
20260903205154 27 196 0.0 1.6 0.00 0.69 0.69 76 1013.8
20260903204650 26 255 3.2 3.2 0.00 0.69 0.69 76 1014.1
20260903204146 26 203 0.0 1.6 0.00 0.69 0.69 76 1014.2
20260903203641 26 248 3.2 3.2 0.00 0.69 0.69 74 1014.1
20260903203136 26 173 1.6 1.6 0.00 0.69 0.69 75 1014.1
20260903202631 27 316 4.8 4.8 0.00 0.69 0.69 74 1014.1
20260903202126 27 227 1.6 3.2 0.00 0.69 0.69 73 1014.0
20260903201621 27 184 1.6 1.6 0.00 0.69 0.69 72 1014.1
20260903201120 27 316 4.8 8.0 0.00 0.69 0.69 72 1014.2
20260903200615 27 355 6.4 9.7 0.00 0.69 0.69 71 1014.2
20260903200110 27 313 4.8 4.8 0.00 0.69 0.69 72 1014.3
20260903195606 27 186 0.0 0.0 0.00 0.69 0.69 72 1014.2
20260903195102 27 216 3.2 3.2 0.00 0.69 0.69 73 1014.1
20260903194557 26 203 0.0 0.0 0.00 0.69 0.69 77 1013.9
20260903194052 26 171 0.0 0.0 0.00 0.69 0.69 76 1014.0
20260903193548 26 146 0.0 0.0 0.00 0.69 0.69 76 1014.1
20260903193043 26 14 4.8 8.0 0.00 0.69 0.69 75 1014.3
20260903192540 27 89 3.2 4.8 0.00 0.69 0.69 74 1014.3
20260903192034 28 218 1.6 1.6 0.00 0.69 0.69 72 1013.9
20260903191531 27 255 1.6 1.6 0.00 0.69 0.69 72 1014.3
20260903191025 27 232 1.6 3.2 0.00 0.69 0.69 73 1014.5
20260903190525 27 305 3.2 3.2 0.00 0.69 0.69 71 1014.5
20260903190024 28 289 4.8 4.8 0.00 0.69 0.69 69 1014.5
20260903185520 27 229 1.6 3.2 0.00 0.69 0.69 71 1014.5
20260903185015 27 286 4.8 8.0 0.00 0.69 0.69 72 1014.7
20260903184506 27 288 4.8 4.8 0.00 0.69 0.69 72 1014.6
20260903184006 27 242 4.8 4.8 0.00 0.69 0.69 72 1014.6
20260903183500 27 347 3.2 3.2 0.00 0.69 0.69 74 1014.9
20260903182959 27 242 3.2 3.2 0.00 0.69 0.69 75 1014.7
20260903182458 27 225 1.6 3.2 0.00 0.69 0.69 77 1014.9
20260903181954 26 196 1.6 3.2 0.00 0.69 0.69 76 1015.0
20260903181447 26 303 4.8 4.8 0.00 0.69 0.69 75 1014.8
20260903180942 26 271 4.8 4.8 0.00 0.69 0.69 77 1014.9
20260903180437 26 194 1.6 1.6 0.00 0.69 0.69 79 1014.9
20260903175936 26 195 3.2 3.2 0.00 0.69 0.69 77 1014.9
20260903175431 26 129 1.6 1.6 0.00 0.69 0.69 77 1014.9
20260903174925 26 158 1.6 1.6 0.00 0.69 0.69 75 1015.1
20260903174421 27 214 3.2 3.2 0.00 0.69 0.69 74 1015.0
20260903173920 27 202 1.6 1.6 0.00 0.69 0.69 73 1014.9
20260903173420 27 142 3.2 4.8 0.00 0.69 0.69 76 1014.9
20260903172916 26 253 3.2 4.8 0.00 0.69 0.69 75 1015.1
20260903172416 27 311 6.4 8.0 0.00 0.69 0.69 75 1015.1
20260903171912 26 261 8.0 9.7 0.00 0.69 0.69 77 1015.1
20260903171407 26 252 1.6 3.2 0.00 0.69 0.69 78 1015.1
20260903170901 26 283 3.2 4.8 0.00 0.69 0.69 78 1015.0
20260903170356 26 221 3.2 3.2 0.00 0.69 0.69 77 1015.3
20260903165855 26 206 1.6 1.6 0.00 0.69 0.69 78 1015.3
20260903165349 26 199 1.6 1.6 0.00 0.69 0.69 78 1015.0
20260903164844 25 280 3.2 3.2 0.00 0.69 0.69 79 1015.1
20260903164339 25 315 3.2 3.2 0.00 0.69 0.69 79 1015.2
20260903163838 25 257 3.2 3.2 0.00 0.69 0.69 80 1015.2
20260903163335 25 291 8.0 9.7 0.00 0.69 0.69 81 1015.4
20260903162831 25 288 4.8 4.8 0.00 0.69 0.69 81 1015.2
20260903162327 26 294 4.8 8.0 0.00 0.69 0.69 79 1015.5
20260903161823 25 226 4.8 8.0 0.00 0.69 0.69 82 1015.6
20260903161318 25 231 1.6 3.2 0.00 0.69 0.69 81 1015.6
20260903160814 26 206 3.2 3.2 0.00 0.69 0.69 82 1015.6
20260903160312 26 194 1.6 1.6 0.00 0.69 0.69 82 1015.8
20260903155811 25 194 3.2 3.2 0.00 0.69 0.69 82 1015.7
20260903155307 25 187 3.2 3.2 0.00 0.69 0.69 84 1015.9
20260903154801 25 210 4.8 4.8 0.00 0.69 0.69 85 1015.9
20260903154258 24 213 1.6 1.6 0.00 0.69 0.69 85 1016.2
20260903153753 24 189 0.0 1.6 0.00 0.69 0.69 88 1016.0
20260903153249 23 217 3.2 3.2 0.00 0.69 0.69 89 1016.2
20260903152745 23 186 0.0 1.6 0.00 0.69 0.69 90 1016.1
20260903152241 23 168 0.0 0.0 0.00 0.69 0.69 90 1016.1
20260903151740 23 263 3.2 3.2 0.00 0.69 0.69 90 1016.2
20260903151236 23 192 0.0 1.6 0.00 0.69 0.69 90 1016.1
20260903150731 22 199 1.6 3.2 0.00 0.69 0.69 90 1016.0
20260903150225 22 209 1.6 3.2 0.00 0.69 0.69 90 1016.4
20260903145725 23 254 3.2 4.8 0.00 0.69 0.69 90 1016.1
20260903145221 23 169 0.0 0.0 0.00 0.69 0.69 91 1015.8
20260903144719 23 181 0.0 0.0 0.00 0.69 0.69 90 1015.9
20260903144216 23 194 1.6 1.6 0.00 0.69 0.69 91 1015.9
20260903143711 22 227 3.2 3.2 0.00 0.69 0.69 91 1016.1
20260903143207 23 207 1.6 1.6 0.00 0.69 0.69 92 1016.0
20260903142702 22 198 4.8 4.8 0.00 0.69 0.69 92 1016.0
20260903142159 22 197 1.6 1.6 0.00 0.69 0.69 95 1016.0
20260903141654 22 216 4.8 4.8 0.00 0.69 0.69 95 1016.1
20260903141149 21 281 4.8 4.8 0.00 0.69 0.69 95 1016.1
20260903140645 21 192 0.0 1.6 0.00 0.69 0.69 95 1015.9
20260903140140 21 186 3.2 3.2 0.00 0.69 0.69 95 1015.9
20260903135636 21 213 4.8 4.8 0.00 0.69 0.69 95 1015.9
20260903135130 21 179 1.6 1.6 0.00 0.69 0.69 95 1015.9
20260903134629 21 187 0.0 0.0 0.00 0.69 0.69 95 1015.6
20260903134125 21 187 1.6 1.6 0.00 0.69 0.69 95 1015.5
20260903133623 20 167 0.0 0.0 0.00 0.69 0.69 95 1015.8
20260903133119 20 195 0.0 1.6 0.00 0.69 0.69 95 1015.8
20260903132614 21 172 1.6 1.6 0.00 0.69 0.69 95 1016.0
20260903132113 20 176 0.0 0.0 0.00 0.69 0.69 95 1015.9
20260903131608 20 177 0.0 0.0 0.00 0.69 0.69 95 1015.9
20260903131107 20 177 0.0 1.6 0.00 0.69 0.69 95 1016.1
20260903130603 20 356 4.8 4.8 0.00 0.69 0.69 95 1016.0
20260903130056 20 153 0.0 0.0 0.00 0.69 0.69 95 1016.0
20260903125554 20 156 0.0 0.0 0.00 0.69 0.69 95 1016.2
20260903113437 18 167 0.0 0.0 0.00 0.69 0.69 95 1015.8
20260903112932 18 167 0.0 0.0 0.00 0.69 0.69 95 1015.8
20260903112428 18 177 0.0 0.0 0.00 0.69 0.69 95 1015.8
20260903111927 18 130 0.0 0.0 0.00 0.69 0.69 95 1015.7
20260903111426 18 158 0.0 0.0 0.00 0.69 0.69 95 1015.6
20260903110923 18 164 0.0 0.0 0.00 0.69 0.69 95 1015.6
20260903110419 18 200 1.6 3.2 0.00 0.69 0.69 95 1015.5
20260903105914 18 133 0.0 0.0 0.00 0.69 0.69 95 1015.6
20260903105409 18 151 0.0 0.0 0.00 0.69 0.69 95 1015.6
20260903104908 18 161 0.0 0.0 0.00 0.69 0.69 95 1015.5
20260903104402 18 126 0.0 0.0 0.00 0.69 0.69 95 1015.6
20260903103900 18 139 0.0 0.0 0.00 0.69 0.69 95 1015.8
20260903103355 18 163 0.0 0.0 0.00 0.69 0.69 95 1015.6
20260903102851 18 168 0.0 0.0 0.00 0.69 0.69 95 1015.5
20260903102350 18 135 0.0 0.0 0.00 0.69 0.69 95 1015.7
20260903101845 18 139 0.0 0.0 0.00 0.69 0.69 95 1015.7
20260903101340 18 125 0.0 0.0 0.00 0.69 0.69 95 1015.5
20260903100835 18 137 0.0 1.6 0.00 0.69 0.69 95 1015.7
20260903100329 18 141 0.0 0.0 0.00 0.69 0.69 95 1015.8
20260903095821 18 141 0.0 0.0 0.00 0.69 0.69 95 1015.8
20260903095315 18 138 0.0 0.0 0.00 0.69 0.69 95 1015.8
20260903094811 18 104 0.0 0.0 0.00 0.69 0.69 95 1015.6
20260903094305 18 99 0.0 0.0 0.00 0.69 0.69 95 1015.6
20260903093801 18 137 0.0 0.0 0.00 0.69 0.69 95 1015.8
20260903093255 18 117 1.6 1.6 0.00 0.69 0.69 95 1015.5
20260903041526 19 193 1.6 1.6 0.48 0.05 0.05 95 1017.6
20260903041021 19 193 1.6 1.6 0.48 0.05 0.05 95 1017.6
20260903040520 19 101 1.6 1.6 0.61 0.03 0.03 95 1017.3
20260903040017 19 255 3.2 3.2 1.37 3.48 3.48 95 1017.6
20260903035512 20 209 4.8 9.7 1.07 3.38 3.38 95 1018.1
20260903035008 19 313 6.4 8.0 0.48 3.25 3.25 95 1018.9
20260903034508 19 248 6.4 9.7 0.18 3.20 3.20 95 1017.9
20260903034002 19 61 0.0 3.2 0.13 3.17 3.17 95 1016.7
20260903033458 19 92 1.6 3.2 0.18 3.15 3.15 95 1016.1
20260903032953 19 110 3.2 3.2 0.18 3.15 3.15 95 1015.8
20260903032448 18 113 4.8 8.0 0.13 3.12 3.12 95 1016.0
20260903031943 18 156 0.0 0.0 0.13 3.12 3.12 95 1016.4
20260903031442 18 74 0.0 0.0 0.18 3.10 3.10 95 1016.8
20260903030932 18 148 0.0 0.0 0.30 3.10 3.10 95 1016.8
20260903030429 18 48 1.6 3.2 0.13 3.07 3.07 95 1017.0
20260903025924 18 335 6.4 8.0 0.30 3.05 3.05 95 1017.1
20260903025419 18 333 1.6 4.8 0.48 3.05 3.05 95 1017.3
20260903024915 18 155 0.0 0.0 0.18 3.00 3.00 95 1017.9
20260903024408 18 161 0.0 0.0 0.13 2.97 2.97 95 1018.0
20260903023903 18 96 0.0 3.2 0.30 2.97 2.97 95 1017.8
20260903023359 18 148 1.6 3.2 0.48 2.95 2.95 95 1018.1
20260903022854 18 171 0.0 0.0 0.61 2.92 2.92 95 1018.2
20260903022353 18 147 0.0 0.0 0.48 2.87 2.87 95 1017.6
20260903021852 18 132 1.6 1.6 0.48 2.82 2.82 95 1017.4
20260903021348 18 147 0.0 0.0 0.30 2.77 2.77 95 1017.4
20260903020847 18 173 0.0 0.0 0.43 2.74 2.74 95 1017.6
20260903020343 18 129 0.0 0.0 0.97 2.72 2.72 95 1018.1
20260903015837 18 113 8.0 9.7 2.29 2.67 2.67 95 1018.5
20260903015332 18 163 1.6 3.2 5.46 2.54 2.54 95 1019.2
20260903014828 18 183 1.6 3.2 7.19 2.29 2.29 95 1020.1
20260903014322 20 353 9.7 24.1 2.77 1.55 1.55 95 1021.3
20260903013817 20 300 6.4 8.0 0.00 1.09 1.09 95 1018.9
20260903013316 20 133 0.0 1.6 0.00 1.09 1.09 95 1017.9
20260903012815 20 122 4.8 4.8 0.00 1.09 1.09 95 1017.5
20260903012309 20 157 0.0 0.0 0.00 1.09 1.09 95 1017.7
20260903011803 20 115 3.2 3.2 0.00 1.09 1.09 95 1017.7
20260903011303 20 122 1.6 1.6 0.00 1.09 1.09 95 1017.6
20260903010758 21 133 4.8 4.8 0.00 1.09 1.09 95 1017.9
20260903010254 21 129 1.6 3.2 0.00 1.09 1.09 95 1018.0
20260903005752 21 139 6.4 8.0 0.00 1.09 1.09 95 1017.4
20260903005247 21 144 3.2 3.2 0.13 1.09 1.09 95 1016.8
20260903004743 21 142 6.4 9.7 0.00 1.07 1.07 95 1016.8
20260903004238 21 110 8.0 14.5 0.00 1.07 1.07 95 1016.9
20260903003734 21 114 6.4 8.0 0.00 1.07 1.07 95 1016.7
20260903003229 21 103 4.8 8.0 0.00 1.07 1.07 95 1017.1
20260903002723 21 148 6.4 8.0 0.00 1.07 1.07 95 1016.9
20260903002218 21 132 8.0 11.3 0.00 1.07 1.07 95 1016.8
20260903001713 21 120 3.2 3.2 0.00 1.07 1.07 95 1017.1
20260903001207 21 155 4.8 4.8 0.00 1.07 1.07 95 1017.0
20260903000703 21 114 4.8 4.8 0.00 1.07 1.07 95 1016.9
20260903000204 21 126 3.2 3.2 0.00 1.07 1.07 95 1017.0
20260902235700 21 166 3.2 3.2 0.00 1.07 1.07 95 1017.2
20260902235156 21 203 8.0 9.7 0.00 1.07 1.07 95 1017.0
20260902234650 21 120 8.0 11.3 0.00 1.07 1.07 95 1016.5
20260902234149 21 137 4.8 8.0 0.00 1.07 1.07 95 1016.5
20260902233644 21 125 9.7 11.3 0.00 1.07 1.07 95 1016.8
20260902233143 21 139 8.0 11.3 0.00 1.07 1.07 95 1016.9
20260902232642 21 167 8.0 11.3 0.00 1.07 1.07 95 1017.0
20260902232141 21 149 3.2 4.8 0.00 1.07 1.07 95 1017.1
20260902231636 21 131 3.2 4.8 0.00 1.07 1.07 95 1017.3
20260902231131 21 151 4.8 4.8 0.00 1.07 1.07 95 1017.1
20260902230626 21 130 1.6 3.2 0.00 1.07 1.07 95 1017.4
20260902230125 21 140 4.8 8.0 0.00 1.07 1.07 95 1017.0
20260902225620 21 162 4.8 8.0 0.00 1.07 1.07 95 1016.7
20260902225119 21 118 8.0 11.3 0.00 1.07 1.07 95 1016.7
20260902224618 21 114 4.8 4.8 0.00 1.07 1.07 95 1016.8
20260902224114 21 115 6.4 12.9 0.00 1.07 1.07 95 1016.9
20260902223611 21 109 17.7 20.9 0.00 1.07 1.07 95 1016.7
20260902223109 21 169 8.0 12.9 0.00 1.07 1.07 95 1016.9
20260902222608 21 128 9.7 14.5 0.00 1.07 1.07 95 1016.8
20260902222107 21 121 6.4 9.7 0.00 1.07 1.07 95 1016.7
20260902221601 21 121 8.0 12.9 0.00 1.07 1.07 95 1017.0
20260902221056 21 131 8.0 11.3 0.00 1.07 1.07 95 1017.0
20260902220552 21 64 9.7 12.9 0.00 1.07 1.07 95 1017.4
20260902220046 21 128 8.0 9.7 0.00 1.07 1.07 95 1017.2
20260902215543 21 108 4.8 9.7 0.00 1.07 1.07 95 1017.5
20260902215037 21 126 6.4 9.7 0.00 1.07 1.07 95 1017.6
20260902214532 21 115 6.4 9.7 0.00 1.07 1.07 95 1017.4
20260902214031 21 116 9.7 11.3 0.00 1.07 1.07 95 1017.5
20260902213527 21 136 6.4 8.0 0.00 1.07 1.07 95 1017.6
20260902213026 21 114 6.4 9.7 0.00 1.07 1.07 95 1017.7
20260902212522 21 115 6.4 9.7 0.00 1.07 1.07 95 1017.6
20260902212018 21 109 6.4 8.0 0.00 1.07 1.07 95 1017.4
20260902211514 21 129 4.8 4.8 0.00 1.07 1.07 95 1017.6
20260902211008 21 181 3.2 3.2 0.00 1.07 1.07 95 1017.7
20260902210503 21 100 6.4 8.0 0.00 1.07 1.07 95 1017.7
20260902210001 21 110 4.8 4.8 0.00 1.07 1.07 95 1017.6